owner,sensor,date,latitude,longitude,vertical_datum,wind_speed,wind_to_direction,wind_speed_of_gust,qcFlag 
COMPS,ioos:station:USF.COMPS:C10:1,2017-01-01T00:05:00Z,27.1690,-82.9260,3.0,5.4,162.08,6.82,'1111122,1111122,1111122' 
COMPS,ioos:station:USF.COMPS:C10:1,2017-01-01T00:35:00Z,27.1690,-82.9260,3.0,4.74,160.28,5.63,'1111122,1111122,1111122' 
COMPS,ioos:station:USF.COMPS:C10:1,2017-01-01T01:05:00Z,27.1690,-82.9260,3.0,4.04,159.25,5.17,'1111122,1111122,1111122' 
COMPS,ioos:station:USF.COMPS:C10:1,2017-01-01T01:35:00Z,27.1690,-82.9260,3.0,4.19,156.62,5.21,'1111122,1111122,1111122' 
COMPS,ioos:station:USF.COMPS:C10:1,2017-01-01T02:05:00Z,27.1690,-82.9260,3.0,3.53,153.2,4.21,'1111122,1111122,1111122' 
COMPS,ioos:station:USF.COMPS:C10:1,2017-01-01T02:35:00Z,27.1690,-82.9260,3.0,3.48,144.13,4.07,'1111122,1111122,1111122' 
COMPS,ioos:station:USF.COMPS:C10:1,2017-01-01T04:05:00Z,27.1690,-82.9260,3.0,4.22,148.59,5.22,'1111122,1111122,1111122' 
COMPS,ioos:station:USF.COMPS:C10:1,2017-01-01T04:35:00Z,27.1690,-82.9260,3.0,4.15,140.58,5.04,'1111122,1111122,1111122' 
COMPS,ioos:station:USF.COMPS:C10:1,2017-01-01T05:05:00Z,27.1690,-82.9260,3.0,4.61,134.53,5.7,'1111122,1111122,1111122' 
COMPS,ioos:station:USF.COMPS:C10:1,2017-01-01T05:35:00Z,27.1690,-82.9260,3.0,4.89,133.7,6.14,'1111122,1111122,1111122' 
COMPS,ioos:station:USF.COMPS:C10:1,2017-01-01T06:05:00Z,27.1690,-82.9260,3.0,5.15,135.39,6.31,'1111122,1111122,1111122' 
COMPS,ioos:station:USF.COMPS:C10:1,2017-01-01T06:35:00Z,27.1690,-82.9260,3.0,4.89,130.06,5.97,'1111122,1111122,1111122' 
COMPS,ioos:station:USF.COMPS:C10:1,2017-01-01T07:05:00Z,27.1690,-82.9260,3.0,4.78,132.79,5.61,'1111122,1111122,1111122' 
COMPS,ioos:station:USF.COMPS:C10:1,2017-01-01T07:35:00Z,27.1690,-82.9260,3.0,5.0,130.52,6.08,'1111122,1111122,1111122' 
COMPS,ioos:station:USF.COMPS:C10:1,2017-01-01T08:05:00Z,27.1690,-82.9260,3.0,5.03,128.9,6.3,'1111122,1111122,1111122' 
COMPS,ioos:station:USF.COMPS:C10:1,2017-01-01T08:35:00Z,27.1690,-82.9260,3.0,5.31,124.01,6.54,'1111122,1111122,1111122' 
COMPS,ioos:station:USF.COMPS:C10:1,2017-01-01T09:05:00Z,27.1690,-82.9260,3.0,5.18,123.56,6.48,'1111122,1111122,1111122' 
COMPS,ioos:station:USF.COMPS:C10:1,2017-01-01T09:35:00Z,27.1690,-82.9260,3.0,5.98,128.43,7.09,'1111122,1111122,1111122' 
COMPS,ioos:station:USF.COMPS:C10:1,2017-01-01T10:05:00Z,27.1690,-82.9260,3.0,6.28,130.79,7.43,'1111122,1111122,1111122' 
COMPS,ioos:station:USF.COMPS:C10:1,2017-01-01T10:35:00Z,27.1690,-82.9260,3.0,6.24,134.76,7.47,'1111122,1111122,1111122' 
COMPS,ioos:station:USF.COMPS:C10:1,2017-01-01T11:05:00Z,27.1690,-82.9260,3.0,5.89,136.38,7.02,'1111122,1111122,1111122' 
COMPS,ioos:station:USF.COMPS:C10:1,2017-01-01T11:35:00Z,27.1690,-82.9260,3.0,6.07,134.63,7.32,'1111122,1111122,1111122' 
COMPS,ioos:station:USF.COMPS:C10:1,2017-01-01T12:05:00Z,27.1690,-82.9260,3.0,6.84,138.88,8.43,'1111122,1111122,1111122' 
COMPS,ioos:station:USF.COMPS:C10:1,2017-01-01T12:35:00Z,27.1690,-82.9260,3.0,6.89,141.17,8.44,'1111122,1111122,1111122' 
COMPS,ioos:station:USF.COMPS:C10:1,2017-01-01T13:05:00Z,27.1690,-82.9260,3.0,6.14,135.37,7.7,'1111122,1111122,1111122' 
COMPS,ioos:station:USF.COMPS:C10:1,2017-01-01T13:35:00Z,27.1690,-82.9260,3.0,5.87,132.66,7.14,'1111122,1111122,1111122' 
COMPS,ioos:station:USF.COMPS:C10:1,2017-01-01T14:05:00Z,27.1690,-82.9260,3.0,6.39,132.8,7.72,'1111122,1111122,1111122' 
COMPS,ioos:station:USF.COMPS:C10:1,2017-01-01T14:35:00Z,27.1690,-82.9260,3.0,5.95,138.14,7.33,'1111122,1111122,1111122' 
COMPS,ioos:station:USF.COMPS:C10:1,2017-01-01T15:05:00Z,27.1690,-82.9260,3.0,5.25,136.5,6.21,'1111122,1111122,1111122' 
COMPS,ioos:station:USF.COMPS:C10:1,2017-01-01T15:35:00Z,27.1690,-82.9260,3.0,4.65,133.21,5.95,'1111122,1111122,1111122' 
COMPS,ioos:station:USF.COMPS:C10:1,2017-01-01T16:05:00Z,27.1690,-82.9260,3.0,5.01,136.07,6.04,'1111122,1111122,1111122' 
COMPS,ioos:station:USF.COMPS:C10:1,2017-01-01T16:35:00Z,27.1690,-82.9260,3.0,5.4,140.63,6.68,'1111122,1111122,1111122' 
COMPS,ioos:station:USF.COMPS:C10:1,2017-01-01T17:05:00Z,27.1690,-82.9260,3.0,5.17,145.08,6.45,'1111122,1111122,1111122' 
COMPS,ioos:station:USF.COMPS:C10:1,2017-01-01T17:35:00Z,27.1690,-82.9260,3.0,4.97,148.76,6.01,'1111122,1111122,1111122' 
COMPS,ioos:station:USF.COMPS:C10:1,2017-01-01T18:05:00Z,27.1690,-82.9260,3.0,5.41,150.71,6.62,'1111122,1111122,1111122' 
COMPS,ioos:station:USF.COMPS:C10:1,2017-01-01T18:35:00Z,27.1690,-82.9260,3.0,5.37,149.51,6.61,'1111122,1111122,1111122' 
COMPS,ioos:station:USF.COMPS:C10:1,2017-01-01T19:05:00Z,27.1690,-82.9260,3.0,4.98,146.3,6.13,'1111122,1111122,1111122' 
COMPS,ioos:station:USF.COMPS:C10:1,2017-01-01T19:35:00Z,27.1690,-82.9260,3.0,4.23,150.59,5.09,'1111122,1111122,1111122' 
COMPS,ioos:station:USF.COMPS:C10:1,2017-01-01T20:05:00Z,27.1690,-82.9260,3.0,4.89,150.22,5.98,'1111122,1111122,1111122' 
COMPS,ioos:station:USF.COMPS:C10:1,2017-01-01T20:35:00Z,27.1690,-82.9260,3.0,5.04,156.43,6.08,'1111122,1111122,1111122' 
COMPS,ioos:station:USF.COMPS:C10:1,2017-01-01T21:05:00Z,27.1690,-82.9260,3.0,4.06,157.02,4.85,'1111122,1111122,1111122' 
COMPS,ioos:station:USF.COMPS:C10:1,2017-01-01T21:35:00Z,27.1690,-82.9260,3.0,3.87,153.34,4.81,'1111122,1111122,1111122' 
COMPS,ioos:station:USF.COMPS:C10:1,2017-01-01T22:05:00Z,27.1690,-82.9260,3.0,4.25,161.59,5.09,'1111122,1111122,1111122' 
COMPS,ioos:station:USF.COMPS:C10:1,2017-01-01T22:35:00Z,27.1690,-82.9260,3.0,3.37,161.14,4.04,'1111122,1111122,1111122' 
COMPS,ioos:station:USF.COMPS:C10:1,2017-01-01T23:05:00Z,27.1690,-82.9260,3.0,3.67,156.02,4.67,'1111122,1111122,1111122' 
COMPS,ioos:station:USF.COMPS:C10:1,2017-01-01T23:35:00Z,27.1690,-82.9260,3.0,2.71,161.38,3.49,'1111122,1111122,1111122' 
COMPS,ioos:station:USF.COMPS:C10:1,2017-01-02T00:05:00Z,27.1690,-82.9260,3.0,2.02,153.05,2.45,'1111122,1111122,1111122' 
COMPS,ioos:station:USF.COMPS:C10:1,2017-01-02T00:35:00Z,27.1690,-82.9260,3.0,1.82,117.41,2.44,'1111122,1111122,1111122' 
COMPS,ioos:station:USF.COMPS:C10:1,2017-01-02T01:05:00Z,27.1690,-82.9260,3.0,1.75,115.98,2.08,'1111122,1111122,1111122' 
COMPS,ioos:station:USF.COMPS:C10:1,2017-01-02T01:35:00Z,27.1690,-82.9260,3.0,2.44,140.46,2.83,'1111122,1111122,1111122' 
COMPS,ioos:station:USF.COMPS:C10:1,2017-01-02T02:05:00Z,27.1690,-82.9260,3.0,2.43,128.86,2.77,'1111122,1111122,1111122' 
COMPS,ioos:station:USF.COMPS:C10:1,2017-01-02T02:35:00Z,27.1690,-82.9260,3.0,2.82,145.26,3.25,'1111122,1111122,1111122' 
COMPS,ioos:station:USF.COMPS:C10:1,2017-01-02T03:05:00Z,27.1690,-82.9260,3.0,3.07,142.73,3.72,'1111122,1111122,1111122' 
COMPS,ioos:station:USF.COMPS:C10:1,2017-01-02T03:35:00Z,27.1690,-82.9260,3.0,3.22,150.87,3.72,'1111122,1111122,1111122' 
COMPS,ioos:station:USF.COMPS:C10:1,2017-01-02T04:05:00Z,27.1690,-82.9260,3.0,3.95,161.19,4.69,'1111122,1111122,1111122' 
COMPS,ioos:station:USF.COMPS:C10:1,2017-01-02T04:35:00Z,27.1690,-82.9260,3.0,3.86,158.87,4.81,'1111122,1111122,1111122' 
COMPS,ioos:station:USF.COMPS:C10:1,2017-01-02T05:05:00Z,27.1690,-82.9260,3.0,4.73,158.5,5.76,'1111122,1111122,1111122' 
COMPS,ioos:station:USF.COMPS:C10:1,2017-01-02T05:35:00Z,27.1690,-82.9260,3.0,4.42,146.55,5.36,'1111122,1111122,1111122' 
COMPS,ioos:station:USF.COMPS:C10:1,2017-01-02T06:05:00Z,27.1690,-82.9260,3.0,4.05,146.16,5.23,'1111122,1111122,1111122' 
COMPS,ioos:station:USF.COMPS:C10:1,2017-01-02T06:35:00Z,27.1690,-82.9260,3.0,3.93,147.8,4.58,'1111122,1111122,1111122' 
COMPS,ioos:station:USF.COMPS:C10:1,2017-01-02T07:05:00Z,27.1690,-82.9260,3.0,3.98,139.62,4.85,'1111122,1111122,1111122' 
COMPS,ioos:station:USF.COMPS:C10:1,2017-01-02T07:35:00Z,27.1690,-82.9260,3.0,5.51,139.16,6.79,'1111122,1111122,1111122' 
COMPS,ioos:station:USF.COMPS:C10:1,2017-01-02T08:05:00Z,27.1690,-82.9260,3.0,4.96,141.28,6.3,'1111122,1111122,1111122' 
COMPS,ioos:station:USF.COMPS:C10:1,2017-01-02T08:35:00Z,27.1690,-82.9260,3.0,4.9,136.59,5.91,'1111122,1111122,1111122' 
COMPS,ioos:station:USF.COMPS:C10:1,2017-01-02T09:05:00Z,27.1690,-82.9260,3.0,4.93,138.66,6.12,'1111122,1111122,1111122' 
COMPS,ioos:station:USF.COMPS:C10:1,2017-01-02T09:35:00Z,27.1690,-82.9260,3.0,3.9,130.5,5.14,'1111122,1111122,1111122' 
COMPS,ioos:station:USF.COMPS:C10:1,2017-01-02T10:05:00Z,27.1690,-82.9260,3.0,4.43,132.85,5.41,'1111122,1111122,1111122' 
COMPS,ioos:station:USF.COMPS:C10:1,2017-01-02T10:35:00Z,27.1690,-82.9260,3.0,3.55,122.2,4.41,'1111122,1111122,1111122' 
COMPS,ioos:station:USF.COMPS:C10:1,2017-01-02T11:05:00Z,27.1690,-82.9260,3.0,4.01,122.9,4.85,'1111122,1111122,1111122' 
COMPS,ioos:station:USF.COMPS:C10:1,2017-01-02T11:35:00Z,27.1690,-82.9260,3.0,4.65,127.37,5.86,'1111122,1111122,1111122' 
COMPS,ioos:station:USF.COMPS:C10:1,2017-01-02T12:05:00Z,27.1690,-82.9260,3.0,5.25,126.1,6.26,'1111122,1111122,1111122' 
COMPS,ioos:station:USF.COMPS:C10:1,2017-01-02T12:35:00Z,27.1690,-82.9260,3.0,4.95,124.13,6.09,'1111122,1111122,1111122' 
COMPS,ioos:station:USF.COMPS:C10:1,2017-01-02T13:05:00Z,27.1690,-82.9260,3.0,4.76,126.17,5.7,'1111122,1111122,1111122' 
COMPS,ioos:station:USF.COMPS:C10:1,2017-01-02T13:35:00Z,27.1690,-82.9260,3.0,4.3,125.71,5.4,'1111122,1111122,1111122' 
COMPS,ioos:station:USF.COMPS:C10:1,2017-01-02T14:05:00Z,27.1690,-82.9260,3.0,3.73,126.66,4.93,'1111122,1111122,1111122' 
COMPS,ioos:station:USF.COMPS:C10:1,2017-01-02T14:35:00Z,27.1690,-82.9260,3.0,3.54,123.37,4.32,'1111122,1111122,1111122' 
COMPS,ioos:station:USF.COMPS:C10:1,2017-01-02T15:05:00Z,27.1690,-82.9260,3.0,3.35,125.48,4.01,'1111122,1111122,1111122' 
COMPS,ioos:station:USF.COMPS:C10:1,2017-01-02T15:35:00Z,27.1690,-82.9260,3.0,3.12,121.17,4.03,'1111122,1111122,1111122' 
COMPS,ioos:station:USF.COMPS:C10:1,2017-01-02T16:05:00Z,27.1690,-82.9260,3.0,3.86,127.35,4.69,'1111122,1111122,1111122' 
COMPS,ioos:station:USF.COMPS:C10:1,2017-01-02T16:35:00Z,27.1690,-82.9260,3.0,4.27,135.55,5.28,'1111122,1111122,1111122' 
COMPS,ioos:station:USF.COMPS:C10:1,2017-01-02T17:05:00Z,27.1690,-82.9260,3.0,4.38,140.34,5.31,'1111122,1111122,1111122' 
COMPS,ioos:station:USF.COMPS:C10:1,2017-01-02T17:35:00Z,27.1690,-82.9260,3.0,5.36,142.03,6.36,'1111122,1111122,1111122' 
COMPS,ioos:station:USF.COMPS:C10:1,2017-01-02T18:05:00Z,27.1690,-82.9260,3.0,5.11,146.12,6.18,'1111122,1111122,1111122' 
COMPS,ioos:station:USF.COMPS:C10:1,2017-01-02T18:35:00Z,27.1690,-82.9260,3.0,6.07,150.48,7.13,'1111122,1111122,1111122' 
COMPS,ioos:station:USF.COMPS:C10:1,2017-01-02T19:05:00Z,27.1690,-82.9260,3.0,5.5,149.69,6.61,'1111122,1111122,1111122' 
COMPS,ioos:station:USF.COMPS:C10:1,2017-01-02T19:35:00Z,27.1690,-82.9260,3.0,4.77,154.06,5.87,'1111122,1111122,1111122' 
COMPS,ioos:station:USF.COMPS:C10:1,2017-01-02T20:05:00Z,27.1690,-82.9260,3.0,4.61,159.3,5.44,'1111122,1111122,1111122' 
COMPS,ioos:station:USF.COMPS:C10:1,2017-01-02T20:35:00Z,27.1690,-82.9260,3.0,3.73,165.88,4.46,'1111122,1111122,1111122' 
COMPS,ioos:station:USF.COMPS:C10:1,2017-01-02T21:05:00Z,27.1690,-82.9260,3.0,3.89,172.44,4.72,'1111122,1111122,1111122' 
COMPS,ioos:station:USF.COMPS:C10:1,2017-01-02T21:35:00Z,27.1690,-82.9260,3.0,3.7,167.02,4.33,'1111122,1111122,1111122' 
COMPS,ioos:station:USF.COMPS:C10:1,2017-01-02T22:05:00Z,27.1690,-82.9260,3.0,4.8,173.11,5.58,'1111122,1111122,1111122' 
COMPS,ioos:station:USF.COMPS:C10:1,2017-01-02T22:35:00Z,27.1690,-82.9260,3.0,5.76,172.22,6.74,'1111122,1111122,1111122' 
COMPS,ioos:station:USF.COMPS:C10:1,2017-01-02T23:05:00Z,27.1690,-82.9260,3.0,6.51,178.8,8.13,'1111122,1111122,1111122' 
COMPS,ioos:station:USF.COMPS:C10:1,2017-01-02T23:35:00Z,27.1690,-82.9260,3.0,6.26,177.0,7.35,'1111122,1111122,1111122' 
COMPS,ioos:station:USF.COMPS:C10:1,2017-01-03T00:05:00Z,27.1690,-82.9260,3.0,6.05,171.94,7.22,'1111122,1111122,1111122' 
COMPS,ioos:station:USF.COMPS:C10:1,2017-01-03T00:35:00Z,27.1690,-82.9260,3.0,4.6,171.0,5.4,'1111122,1111122,1111122' 
COMPS,ioos:station:USF.COMPS:C10:1,2017-01-03T01:05:00Z,27.1690,-82.9260,3.0,2.66,188.42,4.11,'1111122,1111122,1111122' 
COMPS,ioos:station:USF.COMPS:C10:1,2017-01-03T01:35:00Z,27.1690,-82.9260,3.0,3.91,174.28,4.47,'1111122,1111122,1111122' 
COMPS,ioos:station:USF.COMPS:C10:1,2017-01-03T02:05:00Z,27.1690,-82.9260,3.0,4.73,180.96,5.55,'1111122,1111122,1111122' 
COMPS,ioos:station:USF.COMPS:C10:1,2017-01-03T02:35:00Z,27.1690,-82.9260,3.0,4.18,189.21,5.1,'1111122,1111122,1111122' 
COMPS,ioos:station:USF.COMPS:C10:1,2017-01-03T03:05:00Z,27.1690,-82.9260,3.0,3.77,206.16,4.57,'1111122,1111122,1111122' 
COMPS,ioos:station:USF.COMPS:C10:1,2017-01-03T03:35:00Z,27.1690,-82.9260,3.0,4.58,198.08,5.66,'1111122,1111122,1111122' 
COMPS,ioos:station:USF.COMPS:C10:1,2017-01-03T04:05:00Z,27.1690,-82.9260,3.0,3.9,194.07,4.75,'1111122,1111122,1111122' 
COMPS,ioos:station:USF.COMPS:C10:1,2017-01-03T04:35:00Z,27.1690,-82.9260,3.0,3.68,189.16,4.37,'1111122,1111122,1111122' 
COMPS,ioos:station:USF.COMPS:C10:1,2017-01-03T05:05:00Z,27.1690,-82.9260,3.0,2.63,183.58,3.73,'1111122,1111122,1111122' 
COMPS,ioos:station:USF.COMPS:C10:1,2017-01-03T05:35:00Z,27.1690,-82.9260,3.0,3.33,157.88,4.09,'1111122,1111122,1111122' 
COMPS,ioos:station:USF.COMPS:C10:1,2017-01-03T06:05:00Z,27.1690,-82.9260,3.0,3.63,158.42,4.28,'1111122,1111122,1111122' 
COMPS,ioos:station:USF.COMPS:C10:1,2017-01-03T06:35:00Z,27.1690,-82.9260,3.0,3.8,162.74,4.47,'1111122,1111122,1111122' 
COMPS,ioos:station:USF.COMPS:C10:1,2017-01-03T07:05:00Z,27.1690,-82.9260,3.0,2.9,163.09,3.59,'1111122,1111122,1111122' 
COMPS,ioos:station:USF.COMPS:C10:1,2017-01-03T07:35:00Z,27.1690,-82.9260,3.0,2.89,159.59,3.37,'1111122,1111122,1111122' 
COMPS,ioos:station:USF.COMPS:C10:1,2017-01-03T08:05:00Z,27.1690,-82.9260,3.0,2.71,165.63,3.33,'1111122,1111122,1111122' 
COMPS,ioos:station:USF.COMPS:C10:1,2017-01-03T08:35:00Z,27.1690,-82.9260,3.0,2.31,173.31,2.81,'1111122,1111122,1111122' 
COMPS,ioos:station:USF.COMPS:C10:1,2017-01-03T09:05:00Z,27.1690,-82.9260,3.0,2.51,157.91,3.14,'1111122,1111122,1111122' 
COMPS,ioos:station:USF.COMPS:C10:1,2017-01-03T09:35:00Z,27.1690,-82.9260,3.0,2.91,155.66,3.58,'1111122,1111122,1111122' 
COMPS,ioos:station:USF.COMPS:C10:1,2017-01-03T10:05:00Z,27.1690,-82.9260,3.0,2.35,172.06,3.35,'1111122,1111122,1111122' 
COMPS,ioos:station:USF.COMPS:C10:1,2017-01-03T10:35:00Z,27.1690,-82.9260,3.0,3.17,174.04,3.79,'1111122,1111122,1111122' 
COMPS,ioos:station:USF.COMPS:C10:1,2017-01-03T11:05:00Z,27.1690,-82.9260,3.0,3.21,173.71,3.72,'1111122,1111122,1111122' 
COMPS,ioos:station:USF.COMPS:C10:1,2017-01-03T11:35:00Z,27.1690,-82.9260,3.0,3.01,180.76,3.77,'1111122,1111122,1111122' 
COMPS,ioos:station:USF.COMPS:C10:1,2017-01-03T12:05:00Z,27.1690,-82.9260,3.0,2.73,178.71,3.39,'1111122,1111122,1111122' 
COMPS,ioos:station:USF.COMPS:C10:1,2017-01-03T12:35:00Z,27.1690,-82.9260,3.0,3.27,177.01,4.03,'1111122,1111122,1111122' 
COMPS,ioos:station:USF.COMPS:C10:1,2017-01-03T13:05:00Z,27.1690,-82.9260,3.0,4.14,178.46,4.95,'1111122,1111122,1111122' 
COMPS,ioos:station:USF.COMPS:C10:1,2017-01-03T13:35:00Z,27.1690,-82.9260,3.0,5.38,175.08,6.69,'1111122,1111122,1111122' 
COMPS,ioos:station:USF.COMPS:C10:1,2017-01-03T14:05:00Z,27.1690,-82.9260,3.0,5.77,179.31,7.46,'1111122,1111122,1111122' 
COMPS,ioos:station:USF.COMPS:C10:1,2017-01-03T14:35:00Z,27.1690,-82.9260,3.0,5.23,168.81,6.59,'1111122,1111122,1111122' 
COMPS,ioos:station:USF.COMPS:C10:1,2017-01-03T15:05:00Z,27.1690,-82.9260,3.0,4.61,175.39,5.87,'1111122,1111122,1111122' 
COMPS,ioos:station:USF.COMPS:C10:1,2017-01-03T15:35:00Z,27.1690,-82.9260,3.0,4.11,181.21,5.1,'1111122,1111122,1111122' 
COMPS,ioos:station:USF.COMPS:C10:1,2017-01-03T16:05:00Z,27.1690,-82.9260,3.0,4.28,180.47,5.06,'1111122,1111122,1111122' 
COMPS,ioos:station:USF.COMPS:C10:1,2017-01-03T16:35:00Z,27.1690,-82.9260,3.0,4.49,184.6,5.68,'1111122,1111122,1111122' 
COMPS,ioos:station:USF.COMPS:C10:1,2017-01-03T17:05:00Z,27.1690,-82.9260,3.0,3.66,182.38,4.47,'1111122,1111122,1111122' 
COMPS,ioos:station:USF.COMPS:C10:1,2017-01-03T17:35:00Z,27.1690,-82.9260,3.0,3.02,175.57,3.71,'1111122,1111122,1111122' 
COMPS,ioos:station:USF.COMPS:C10:1,2017-01-03T18:05:00Z,27.1690,-82.9260,3.0,3.27,181.71,4.03,'1111122,1111122,1111122' 
COMPS,ioos:station:USF.COMPS:C10:1,2017-01-03T18:35:00Z,27.1690,-82.9260,3.0,3.37,186.96,4.28,'1111122,1111122,1111122' 
COMPS,ioos:station:USF.COMPS:C10:1,2017-01-03T19:05:00Z,27.1690,-82.9260,3.0,2.5,180.87,3.09,'1111122,1111122,1111122' 
COMPS,ioos:station:USF.COMPS:C10:1,2017-01-03T19:35:00Z,27.1690,-82.9260,3.0,2.77,185.52,3.35,'1111122,1111122,1111122' 
COMPS,ioos:station:USF.COMPS:C10:1,2017-01-03T20:05:00Z,27.1690,-82.9260,3.0,3.13,190.21,4.02,'1111122,1111122,1111122' 
COMPS,ioos:station:USF.COMPS:C10:1,2017-01-03T20:35:00Z,27.1690,-82.9260,3.0,2.81,192.19,3.47,'1111122,1111122,1111122' 
COMPS,ioos:station:USF.COMPS:C10:1,2017-01-03T21:05:00Z,27.1690,-82.9260,3.0,3.72,204.61,4.49,'1111122,1111122,1111122' 
COMPS,ioos:station:USF.COMPS:C10:1,2017-01-03T21:35:00Z,27.1690,-82.9260,3.0,2.95,188.21,3.92,'1111122,1111122,1111122' 
COMPS,ioos:station:USF.COMPS:C10:1,2017-01-03T22:05:00Z,27.1690,-82.9260,3.0,2.51,160.08,3.64,'1111122,1111122,1111122' 
COMPS,ioos:station:USF.COMPS:C10:1,2017-01-03T22:35:00Z,27.1690,-82.9260,3.0,3.36,161.31,4.04,'1111122,1111122,1111122' 
COMPS,ioos:station:USF.COMPS:C10:1,2017-01-03T23:05:00Z,27.1690,-82.9260,3.0,3.14,179.28,3.9,'1111122,1111122,1111122' 
COMPS,ioos:station:USF.COMPS:C10:1,2017-01-03T23:35:00Z,27.1690,-82.9260,3.0,2.87,180.56,5.06,'1111122,1111122,1111122' 
COMPS,ioos:station:USF.COMPS:C10:1,2017-01-04T00:05:00Z,27.1690,-82.9260,3.0,3.37,197.29,3.87,'1111122,1111122,1111122' 
COMPS,ioos:station:USF.COMPS:C10:1,2017-01-04T00:35:00Z,27.1690,-82.9260,3.0,4.12,199.32,4.89,'1111122,1111122,1111122' 
COMPS,ioos:station:USF.COMPS:C10:1,2017-01-04T01:05:00Z,27.1690,-82.9260,3.0,3.86,203.85,4.51,'1111122,1111122,1111122' 
COMPS,ioos:station:USF.COMPS:C10:1,2017-01-04T01:35:00Z,27.1690,-82.9260,3.0,4.23,199.48,4.93,'1111122,1111122,1111122' 
COMPS,ioos:station:USF.COMPS:C10:1,2017-01-04T02:05:00Z,27.1690,-82.9260,3.0,4.1,205.46,5.36,'1111122,1111122,1111122' 
COMPS,ioos:station:USF.COMPS:C10:1,2017-01-04T02:35:00Z,27.1690,-82.9260,3.0,3.89,208.75,4.88,'1111122,1111122,1111122' 
COMPS,ioos:station:USF.COMPS:C10:1,2017-01-04T03:05:00Z,27.1690,-82.9260,3.0,3.16,206.3,4.07,'1111122,1111122,1111122' 
COMPS,ioos:station:USF.COMPS:C10:1,2017-01-04T03:35:00Z,27.1690,-82.9260,3.0,4.29,236.84,6.32,'1111122,1111122,1111122' 
COMPS,ioos:station:USF.COMPS:C10:1,2017-01-04T04:05:00Z,27.1690,-82.9260,3.0,2.94,231.86,3.7,'1111122,1111122,1111122' 
COMPS,ioos:station:USF.COMPS:C10:1,2017-01-04T04:35:00Z,27.1690,-82.9260,3.0,3.16,211.37,3.87,'1111122,1111122,1111122' 
COMPS,ioos:station:USF.COMPS:C10:1,2017-01-04T05:05:00Z,27.1690,-82.9260,3.0,2.84,221.38,3.78,'1111122,1111122,1111122' 
COMPS,ioos:station:USF.COMPS:C10:1,2017-01-04T05:35:00Z,27.1690,-82.9260,3.0,2.86,243.02,3.36,'1111122,1111122,1111122' 
COMPS,ioos:station:USF.COMPS:C10:1,2017-01-04T06:05:00Z,27.1690,-82.9260,3.0,2.52,237.31,3.41,'1111122,1111122,1111122' 
COMPS,ioos:station:USF.COMPS:C10:1,2017-01-04T06:35:00Z,27.1690,-82.9260,3.0,3.04,240.49,3.7,'1111122,1111122,1111122' 
COMPS,ioos:station:USF.COMPS:C10:1,2017-01-04T07:05:00Z,27.1690,-82.9260,3.0,2.61,227.25,3.43,'1111122,1111122,1111122' 
COMPS,ioos:station:USF.COMPS:C10:1,2017-01-04T07:35:00Z,27.1690,-82.9260,3.0,2.32,230.34,2.74,'1111122,1111122,1111122' 
COMPS,ioos:station:USF.COMPS:C10:1,2017-01-04T08:05:00Z,27.1690,-82.9260,3.0,2.7,206.75,3.65,'1111122,1111122,1111122' 
COMPS,ioos:station:USF.COMPS:C10:1,2017-01-04T08:35:00Z,27.1690,-82.9260,3.0,2.59,214.83,3.24,'1111122,1111122,1111122' 
COMPS,ioos:station:USF.COMPS:C10:1,2017-01-04T12:05:00Z,27.1690,-82.9260,3.0,1.5,236.75,1.98,'1111122,1111122,1111122' 
COMPS,ioos:station:USF.COMPS:C10:1,2017-01-04T12:35:00Z,27.1690,-82.9260,3.0,1.5,234.63,1.88,'1111122,1111122,1111122' 
COMPS,ioos:station:USF.COMPS:C10:1,2017-01-04T14:05:00Z,27.1690,-82.9260,3.0,2.15,214.39,2.57,'1111122,1111122,1111122' 
COMPS,ioos:station:USF.COMPS:C10:1,2017-01-04T14:35:00Z,27.1690,-82.9260,3.0,2.74,267.01,4.72,'1111122,1111122,1111122' 
COMPS,ioos:station:USF.COMPS:C10:1,2017-01-04T15:05:00Z,27.1690,-82.9260,3.0,2.87,298.28,4.45,'1111122,1111122,1111122' 
COMPS,ioos:station:USF.COMPS:C10:1,2017-01-04T15:35:00Z,27.1690,-82.9260,3.0,7.33,354.03,9.44,'1111122,1111122,1111122' 
COMPS,ioos:station:USF.COMPS:C10:1,2017-01-04T20:05:00Z,27.1690,-82.9260,3.0,5.13,2.97,6.29,'1111122,1111122,1111122' 
COMPS,ioos:station:USF.COMPS:C10:1,2017-01-04T20:35:00Z,27.1690,-82.9260,3.0,4.74,358.73,6.01,'1111122,1111122,1111122' 
COMPS,ioos:station:USF.COMPS:C10:1,2017-01-04T23:05:00Z,27.1690,-82.9260,3.0,2.82,348.43,3.67,'1111122,1111122,1111122' 
COMPS,ioos:station:USF.COMPS:C10:1,2017-01-04T23:35:00Z,27.1690,-82.9260,3.0,1.7,1.53,2.68,'1111122,1111122,1111122' 
COMPS,ioos:station:USF.COMPS:C10:1,2017-01-05T01:05:00Z,27.1690,-82.9260,3.0,1.45,19.26,1.94,'1111122,1111122,1111122' 
COMPS,ioos:station:USF.COMPS:C10:1,2017-01-05T01:35:00Z,27.1690,-82.9260,3.0,1.82,21.11,2.19,'1111122,1111122,1111122' 
COMPS,ioos:station:USF.COMPS:C10:1,2017-01-05T02:05:00Z,27.1690,-82.9260,3.0,1.22,44.32,1.87,'1111122,1111122,1111122' 
COMPS,ioos:station:USF.COMPS:C10:1,2017-01-05T02:35:00Z,27.1690,-82.9260,3.0,1.68,15.12,2.72,'1111122,1111122,1111122' 
COMPS,ioos:station:USF.COMPS:C10:1,2017-01-05T03:05:00Z,27.1690,-82.9260,3.0,0.68,68.83,1.44,'1111122,1111122,1111122' 
COMPS,ioos:station:USF.COMPS:C10:1,2017-01-05T03:35:00Z,27.1690,-82.9260,3.0,1.1,134.64,1.68,'1111122,1111122,1111122' 
COMPS,ioos:station:USF.COMPS:C10:1,2017-01-05T04:05:00Z,27.1690,-82.9260,3.0,1.63,142.22,2.27,'1111122,1111122,1111122' 
COMPS,ioos:station:USF.COMPS:C10:1,2017-01-05T04:35:00Z,27.1690,-82.9260,3.0,1.77,146.67,2.56,'1111122,1111122,1111122' 
COMPS,ioos:station:USF.COMPS:C10:1,2017-01-05T05:05:00Z,27.1690,-82.9260,3.0,0.96,157.18,1.52,'1111122,1111122,1111122' 
COMPS,ioos:station:USF.COMPS:C10:1,2017-01-05T05:35:00Z,27.1690,-82.9260,3.0,0.91,145.78,1.97,'1111122,1111122,1111122' 
COMPS,ioos:station:USF.COMPS:C10:1,2017-01-05T07:05:00Z,27.1690,-82.9260,3.0,1.38,144.13,2.0,'1111122,1111122,1111122' 
COMPS,ioos:station:USF.COMPS:C10:1,2017-01-05T07:35:00Z,27.1690,-82.9260,3.0,1.36,154.58,1.88,'1111122,1111122,1111122' 
COMPS,ioos:station:USF.COMPS:C10:1,2017-01-05T08:05:00Z,27.1690,-82.9260,3.0,1.37,126.19,2.58,'1111122,1111122,1111122' 
COMPS,ioos:station:USF.COMPS:C10:1,2017-01-05T08:35:00Z,27.1690,-82.9260,3.0,1.01,94.0,1.65,'1111122,1111122,1111122' 
COMPS,ioos:station:USF.COMPS:C10:1,2017-01-05T10:05:00Z,27.1690,-82.9260,3.0,3.0,106.24,3.86,'1111122,1111122,1111122' 
COMPS,ioos:station:USF.COMPS:C10:1,2017-01-05T10:35:00Z,27.1690,-82.9260,3.0,3.23,114.74,4.38,'1111122,1111122,1111122' 
COMPS,ioos:station:USF.COMPS:C10:1,2017-01-05T11:05:00Z,27.1690,-82.9260,3.0,3.72,117.08,4.53,'1111122,1111122,1111122' 
COMPS,ioos:station:USF.COMPS:C10:1,2017-01-05T11:35:00Z,27.1690,-82.9260,3.0,3.61,121.33,4.63,'1111122,1111122,1111122' 
COMPS,ioos:station:USF.COMPS:C10:1,2017-01-05T12:05:00Z,27.1690,-82.9260,3.0,3.76,123.32,4.74,'1111122,1111122,1111122' 
COMPS,ioos:station:USF.COMPS:C10:1,2017-01-05T12:35:00Z,27.1690,-82.9260,3.0,4.01,122.88,4.72,'1111122,1111122,1111122' 
COMPS,ioos:station:USF.COMPS:C10:1,2017-01-05T14:05:00Z,27.1690,-82.9260,3.0,4.14,117.74,5.19,'1111122,1111122,1111122' 
COMPS,ioos:station:USF.COMPS:C10:1,2017-01-05T14:35:00Z,27.1690,-82.9260,3.0,3.7,109.45,4.67,'1111122,1111122,1111122' 
COMPS,ioos:station:USF.COMPS:C10:1,2017-01-05T16:05:00Z,27.1690,-82.9260,3.0,3.64,123.99,4.9,'1111122,1111122,1111122' 
COMPS,ioos:station:USF.COMPS:C10:1,2017-01-05T16:35:00Z,27.1690,-82.9260,3.0,3.66,136.6,4.67,'1111122,1111122,1111122' 
COMPS,ioos:station:USF.COMPS:C10:1,2017-01-05T17:05:00Z,27.1690,-82.9260,3.0,4.17,135.24,5.16,'1111122,1111122,1111122' 
COMPS,ioos:station:USF.COMPS:C10:1,2017-01-05T17:35:00Z,27.1690,-82.9260,3.0,4.36,134.9,5.54,'1111122,1111122,1111122' 
COMPS,ioos:station:USF.COMPS:C10:1,2017-01-05T18:05:00Z,27.1690,-82.9260,3.0,4.94,145.78,6.13,'1111122,1111122,1111122' 
COMPS,ioos:station:USF.COMPS:C10:1,2017-01-05T18:35:00Z,27.1690,-82.9260,3.0,4.41,147.72,5.33,'1111122,1111122,1111122' 